Year,Month,Day,Hour,Minute,Value (Times are PST for temperature in C)
2018,01,16,00,00,7.90
2018,01,16,00,01,7.90
2018,01,16,00,02,7.90
2018,01,16,00,03,7.90
2018,01,16,00,04,7.90
2018,01,16,00,05,7.90
2018,01,16,00,06,7.90
2018,01,16,00,07,7.90
2018,01,16,00,08,7.90
2018,01,16,00,09,7.90
2018,01,16,00,10,7.90
2018,01,16,00,11,7.90
2018,01,16,00,12,7.90
2018,01,16,00,13,7.90
2018,01,16,00,14,7.90
2018,01,16,00,15,7.90
2018,01,16,00,16,7.90
2018,01,16,00,17,7.90
2018,01,16,00,18,7.90
2018,01,16,00,19,7.90
2018,01,16,00,20,7.90
2018,01,16,00,21,7.90
2018,01,16,00,22,7.90
2018,01,16,00,23,7.90
2018,01,16,00,24,7.90
2018,01,16,00,25,7.90
2018,01,16,00,26,7.90
2018,01,16,00,27,7.90
2018,01,16,00,28,7.90
2018,01,16,00,29,7.90
2018,01,16,00,30,7.90
2018,01,16,00,31,7.90
2018,01,16,00,32,7.90
2018,01,16,00,33,7.80
2018,01,16,00,34,7.80
2018,01,16,00,35,7.80
2018,01,16,00,36,7.80
2018,01,16,00,37,7.80
2018,01,16,00,38,7.80
2018,01,16,00,39,7.80
2018,01,16,00,40,7.80
2018,01,16,00,41,7.80
2018,01,16,00,42,7.80
2018,01,16,00,43,7.80
2018,01,16,00,44,7.80
2018,01,16,00,45,7.80
2018,01,16,00,46,7.80
2018,01,16,00,47,7.80
2018,01,16,00,48,7.80
2018,01,16,00,49,7.80
2018,01,16,00,50,7.80
2018,01,16,00,51,7.80
2018,01,16,00,52,7.80
2018,01,16,00,53,7.70
2018,01,16,00,54,7.70
2018,01,16,00,55,7.70
2018,01,16,00,56,7.60
2018,01,16,00,57,7.60
2018,01,16,00,58,7.60
2018,01,16,00,59,7.50
2018,01,16,01,00,7.50
2018,01,16,01,01,7.50
2018,01,16,01,02,7.40
2018,01,16,01,03,7.40
2018,01,16,01,04,7.40
2018,01,16,01,05,7.30
2018,01,16,01,06,7.30
2018,01,16,01,07,7.30
2018,01,16,01,08,7.30
2018,01,16,01,09,7.30
2018,01,16,01,10,7.30
2018,01,16,01,11,7.30
2018,01,16,01,12,7.30
2018,01,16,01,13,7.30
2018,01,16,01,14,7.30
2018,01,16,01,15,7.30
2018,01,16,01,16,7.20
2018,01,16,01,17,7.20
2018,01,16,01,18,7.20
2018,01,16,01,19,7.20
2018,01,16,01,20,7.20
2018,01,16,01,21,7.20
2018,01,16,01,22,7.20
2018,01,16,01,23,7.20
2018,01,16,01,24,7.20
2018,01,16,01,25,7.20
2018,01,16,01,26,7.20
2018,01,16,01,27,7.20
2018,01,16,01,28,7.20
2018,01,16,01,29,7.20
2018,01,16,01,30,7.20
2018,01,16,01,31,7.20
2018,01,16,01,32,7.20
2018,01,16,01,33,7.10
2018,01,16,01,34,7.10
2018,01,16,01,35,7.10
2018,01,16,01,36,7.10
2018,01,16,01,37,7.10
2018,01,16,01,38,7.10
2018,01,16,01,39,7.10
2018,01,16,01,40,7.10
2018,01,16,01,41,7.10
2018,01,16,01,42,7.00
2018,01,16,01,43,7.00
2018,01,16,01,44,7.00
2018,01,16,01,45,7.00
2018,01,16,01,46,7.00
2018,01,16,01,47,6.90
2018,01,16,01,48,6.90
2018,01,16,01,49,6.90
2018,01,16,01,50,6.90
2018,01,16,01,51,6.90
2018,01,16,01,52,6.90
2018,01,16,01,53,6.90
2018,01,16,01,54,6.90
2018,01,16,01,55,6.80
2018,01,16,01,56,6.80
2018,01,16,01,57,6.80
2018,01,16,01,58,6.80
2018,01,16,01,59,6.80
2018,01,16,02,00,6.80
2018,01,16,02,01,6.80
2018,01,16,02,02,6.70
2018,01,16,02,03,6.70
2018,01,16,02,04,6.70
2018,01,16,02,05,6.70
2018,01,16,02,06,6.70
2018,01,16,02,07,6.70
2018,01,16,02,08,6.70
2018,01,16,02,09,6.80
2018,01,16,02,10,6.80
2018,01,16,02,11,6.80
2018,01,16,02,12,6.90
2018,01,16,02,13,6.90
2018,01,16,02,14,7.00
2018,01,16,02,15,7.00
2018,01,16,02,16,7.00
2018,01,16,02,17,7.00
2018,01,16,02,18,6.90
2018,01,16,02,19,6.90
2018,01,16,02,20,6.90
2018,01,16,02,21,6.90
2018,01,16,02,22,6.90
2018,01,16,02,23,6.80
2018,01,16,02,24,6.80
2018,01,16,02,25,6.80
2018,01,16,02,26,6.70
2018,01,16,02,27,6.70
2018,01,16,02,28,6.80
2018,01,16,02,29,6.80
2018,01,16,02,30,6.80
2018,01,16,02,31,6.80
2018,01,16,02,32,6.80
2018,01,16,02,33,6.80
2018,01,16,02,34,6.90
2018,01,16,02,35,7.00
2018,01,16,02,36,7.00
2018,01,16,02,37,7.00
2018,01,16,02,38,7.10
2018,01,16,02,39,7.10
2018,01,16,02,40,7.10
2018,01,16,02,41,7.10
2018,01,16,02,42,7.10
2018,01,16,02,43,7.10
2018,01,16,02,44,7.10
2018,01,16,02,45,7.10
2018,01,16,02,46,7.10
2018,01,16,02,47,7.10
2018,01,16,02,48,7.10
2018,01,16,02,49,7.10
2018,01,16,02,50,7.10
2018,01,16,02,51,7.00
2018,01,16,02,52,7.00
2018,01,16,02,53,7.00
2018,01,16,02,54,7.00
2018,01,16,02,55,7.00
2018,01,16,02,56,7.00
2018,01,16,02,57,7.00
2018,01,16,02,58,7.00
2018,01,16,02,59,7.00
2018,01,16,03,00,7.00
2018,01,16,03,01,7.00
2018,01,16,03,02,7.00
2018,01,16,03,03,7.00
2018,01,16,03,04,7.00
2018,01,16,03,05,7.00
2018,01,16,03,06,7.00
2018,01,16,03,07,7.00
2018,01,16,03,08,6.90
2018,01,16,03,09,6.90
2018,01,16,03,10,6.90
2018,01,16,03,11,6.90
2018,01,16,03,12,6.90
2018,01,16,03,13,6.90
2018,01,16,03,14,6.90
2018,01,16,03,15,6.90
2018,01,16,03,16,6.90
2018,01,16,03,17,6.80
2018,01,16,03,18,6.80
2018,01,16,03,19,6.70
2018,01,16,03,20,6.70
2018,01,16,03,21,6.70
2018,01,16,03,22,6.60
2018,01,16,03,23,6.60
2018,01,16,03,24,6.60
2018,01,16,03,25,6.60
2018,01,16,03,26,6.50
2018,01,16,03,27,6.50
2018,01,16,03,28,6.50
2018,01,16,03,29,6.40
2018,01,16,03,30,6.40
2018,01,16,03,31,6.30
2018,01,16,03,32,6.30
2018,01,16,03,33,6.30
2018,01,16,03,34,6.30
2018,01,16,03,35,6.30
2018,01,16,03,36,6.30
2018,01,16,03,37,6.30
2018,01,16,03,38,6.20
2018,01,16,03,39,6.20
2018,01,16,03,40,6.20
2018,01,16,03,41,6.20
2018,01,16,03,42,6.20
2018,01,16,03,43,6.20
2018,01,16,03,44,6.20
2018,01,16,03,45,6.20
2018,01,16,03,46,6.20
2018,01,16,03,47,6.20
2018,01,16,03,48,6.20
2018,01,16,03,49,6.20
2018,01,16,03,50,6.20
2018,01,16,03,51,6.20
2018,01,16,03,52,6.20
2018,01,16,03,53,6.20
2018,01,16,03,54,6.20
2018,01,16,03,55,6.20
2018,01,16,03,56,6.20
2018,01,16,03,57,6.20
2018,01,16,03,58,6.20
2018,01,16,03,59,6.20
2018,01,16,04,00,6.20
2018,01,16,04,01,6.20
2018,01,16,04,02,6.20
2018,01,16,04,03,6.10
2018,01,16,04,04,6.10
2018,01,16,04,05,6.10
2018,01,16,04,06,6.10
2018,01,16,04,07,6.10
2018,01,16,04,08,6.10
2018,01,16,04,09,6.10
2018,01,16,04,10,6.10
2018,01,16,04,11,6.10
2018,01,16,04,12,6.10
2018,01,16,04,13,6.10
2018,01,16,04,14,6.10
2018,01,16,04,15,6.00
2018,01,16,04,16,6.00
2018,01,16,04,17,6.00
2018,01,16,04,18,6.00
2018,01,16,04,19,6.00
2018,01,16,04,20,6.00
2018,01,16,04,21,5.90
2018,01,16,04,22,5.90
2018,01,16,04,23,5.90
2018,01,16,04,24,5.90
2018,01,16,04,25,5.90
2018,01,16,04,26,5.90
2018,01,16,04,27,5.90
2018,01,16,04,28,5.90
2018,01,16,04,29,5.90
2018,01,16,04,30,5.90
2018,01,16,04,31,5.90
2018,01,16,04,32,5.90
2018,01,16,04,33,5.90
2018,01,16,04,34,5.90
2018,01,16,04,35,5.90
2018,01,16,04,36,5.90
2018,01,16,04,37,5.90
2018,01,16,04,38,5.90
2018,01,16,04,39,5.90
2018,01,16,04,40,5.90
2018,01,16,04,41,5.90
2018,01,16,04,42,5.90
2018,01,16,04,43,5.90
2018,01,16,04,44,5.90
2018,01,16,04,45,6.00
2018,01,16,04,46,6.00
2018,01,16,04,47,6.00
2018,01,16,04,48,6.10
2018,01,16,04,49,6.10
2018,01,16,04,50,6.10
2018,01,16,04,51,6.10
2018,01,16,04,52,6.10
2018,01,16,04,53,6.10
2018,01,16,04,54,6.10
2018,01,16,04,55,6.10
2018,01,16,04,56,6.10
2018,01,16,04,57,6.10
2018,01,16,04,58,6.10
2018,01,16,04,59,6.10
2018,01,16,05,00,6.10
2018,01,16,05,01,6.20
2018,01,16,05,02,6.30
2018,01,16,05,03,6.30
2018,01,16,05,04,6.40
2018,01,16,05,05,6.40
2018,01,16,05,06,6.40
2018,01,16,05,07,6.50
2018,01,16,05,08,6.60
2018,01,16,05,09,6.70
2018,01,16,05,10,6.70
2018,01,16,05,11,6.70
2018,01,16,05,12,6.70
2018,01,16,05,13,6.70
2018,01,16,05,14,6.70
2018,01,16,05,15,6.80
2018,01,16,05,16,6.80
2018,01,16,05,17,6.90
2018,01,16,05,18,6.90
2018,01,16,05,19,6.90
2018,01,16,05,20,6.90
2018,01,16,05,21,6.90
2018,01,16,05,22,6.90
2018,01,16,05,23,6.90
2018,01,16,05,24,6.90
2018,01,16,05,25,6.90
2018,01,16,05,26,6.90
2018,01,16,05,27,6.90
2018,01,16,05,28,6.90
2018,01,16,05,29,6.90
2018,01,16,05,30,7.00
2018,01,16,05,31,6.90
2018,01,16,05,32,6.90
2018,01,16,05,33,6.90
2018,01,16,05,34,7.00
2018,01,16,05,35,7.00
2018,01,16,05,36,7.00
2018,01,16,05,37,7.00
2018,01,16,05,38,7.00
2018,01,16,05,39,7.00
2018,01,16,05,40,7.10
2018,01,16,05,41,7.10
2018,01,16,05,42,7.10
2018,01,16,05,43,7.10
2018,01,16,05,44,7.20
2018,01,16,05,45,7.20
2018,01,16,05,46,7.10
2018,01,16,05,47,7.20
2018,01,16,05,48,7.20
2018,01,16,05,49,7.10
2018,01,16,05,50,7.10
2018,01,16,05,51,7.10
2018,01,16,05,52,7.10
2018,01,16,05,53,7.10
2018,01,16,05,54,7.10
2018,01,16,05,55,7.00
2018,01,16,05,56,7.00
2018,01,16,05,57,6.90
2018,01,16,05,58,6.90
2018,01,16,05,59,6.80
2018,01,16,06,00,6.80
2018,01,16,06,01,6.70
2018,01,16,06,02,6.70
2018,01,16,06,03,6.70
2018,01,16,06,04,6.70
2018,01,16,06,05,6.70
2018,01,16,06,06,6.60
2018,01,16,06,07,6.60
2018,01,16,06,08,6.60
2018,01,16,06,09,6.60
2018,01,16,06,10,6.60
2018,01,16,06,11,6.60
2018,01,16,06,12,6.50
2018,01,16,06,13,6.50
2018,01,16,06,14,6.50
2018,01,16,06,15,6.50
2018,01,16,06,16,6.50
2018,01,16,06,17,6.50
2018,01,16,06,18,6.50
2018,01,16,06,19,6.50
2018,01,16,06,20,6.50
2018,01,16,06,21,6.50
2018,01,16,06,22,6.40
2018,01,16,06,23,6.40
2018,01,16,06,24,6.40
2018,01,16,06,25,6.40
2018,01,16,06,26,6.40
2018,01,16,06,27,6.40
2018,01,16,06,28,6.40
2018,01,16,06,29,6.30
2018,01,16,06,30,6.30
2018,01,16,06,31,6.30
2018,01,16,06,32,6.30
2018,01,16,06,33,6.30
2018,01,16,06,34,6.30
2018,01,16,06,35,6.30
2018,01,16,06,36,6.20
2018,01,16,06,37,6.20
2018,01,16,06,38,6.20
2018,01,16,06,39,6.20
2018,01,16,06,40,6.20
2018,01,16,06,41,6.20
2018,01,16,06,42,6.20
2018,01,16,06,43,6.20
2018,01,16,06,44,6.10
2018,01,16,06,45,6.10
2018,01,16,06,46,6.10
2018,01,16,06,47,6.10
2018,01,16,06,48,6.00
2018,01,16,06,49,6.00
2018,01,16,06,50,6.00
2018,01,16,06,51,6.00
2018,01,16,06,52,6.00
2018,01,16,06,53,5.90
2018,01,16,06,54,5.90
2018,01,16,06,55,5.90
2018,01,16,06,56,5.90
2018,01,16,06,57,5.80
2018,01,16,06,58,5.80
2018,01,16,06,59,5.80
2018,01,16,07,00,5.80
2018,01,16,07,01,5.70
2018,01,16,07,02,5.70
2018,01,16,07,03,5.70
2018,01,16,07,04,5.70
2018,01,16,07,05,5.70
2018,01,16,07,06,5.70
2018,01,16,07,07,5.60
2018,01,16,07,08,5.60
2018,01,16,07,09,5.60
2018,01,16,07,10,5.50
2018,01,16,07,11,5.50
2018,01,16,07,12,5.40
2018,01,16,07,13,5.40
2018,01,16,07,14,5.40
2018,01,16,07,15,5.40
2018,01,16,07,16,5.30
2018,01,16,07,17,5.30
2018,01,16,07,18,5.40
2018,01,16,07,19,5.40
2018,01,16,07,20,5.50
2018,01,16,07,21,5.50
2018,01,16,07,22,5.60
2018,01,16,07,23,5.70
2018,01,16,07,24,5.70
2018,01,16,07,25,5.80
2018,01,16,07,26,6.00
2018,01,16,07,27,6.10
2018,01,16,07,28,6.20
2018,01,16,07,29,6.20
2018,01,16,07,30,6.20
2018,01,16,07,31,6.00
2018,01,16,07,32,5.90
2018,01,16,07,33,5.80
2018,01,16,07,34,5.70
2018,01,16,07,35,5.60
2018,01,16,07,36,5.60
2018,01,16,07,37,5.60
2018,01,16,07,38,5.60
2018,01,16,07,39,5.50
2018,01,16,07,40,5.50
2018,01,16,07,41,5.40
2018,01,16,07,42,5.40
2018,01,16,07,43,5.40
2018,01,16,07,44,5.30
2018,01,16,07,45,5.30
2018,01,16,07,46,5.30
2018,01,16,07,47,5.30
2018,01,16,07,48,5.30
2018,01,16,07,49,5.30
2018,01,16,07,50,5.30
2018,01,16,07,51,5.30
2018,01,16,07,52,5.30
2018,01,16,07,53,5.30
2018,01,16,07,54,5.20
2018,01,16,07,55,5.20
2018,01,16,07,56,5.20
2018,01,16,07,57,5.10
2018,01,16,07,58,5.10
2018,01,16,07,59,5.10
2018,01,16,08,00,5.00
2018,01,16,08,01,5.00
2018,01,16,08,02,4.90
2018,01,16,08,03,4.90
2018,01,16,08,04,4.80
2018,01,16,08,05,4.80
2018,01,16,08,06,4.70
2018,01,16,08,07,4.70
2018,01,16,08,08,4.70
2018,01,16,08,09,4.70
2018,01,16,08,10,4.70
2018,01,16,08,11,4.60
2018,01,16,08,12,4.60
2018,01,16,08,13,4.60
2018,01,16,08,14,4.60
2018,01,16,08,15,4.60
2018,01,16,08,16,4.60
2018,01,16,08,17,4.60
2018,01,16,08,18,4.60
2018,01,16,08,19,4.50
2018,01,16,08,20,4.50
2018,01,16,08,21,4.50
2018,01,16,08,22,4.50
2018,01,16,08,23,4.50
2018,01,16,08,24,4.60
2018,01,16,08,25,4.60
2018,01,16,08,26,4.60
2018,01,16,08,27,4.70
2018,01,16,08,28,4.70
2018,01,16,08,29,4.70
2018,01,16,08,30,4.70
2018,01,16,08,31,4.70
2018,01,16,08,32,4.60
2018,01,16,08,33,4.60
2018,01,16,08,34,4.60
2018,01,16,08,35,4.60
2018,01,16,08,36,4.50
2018,01,16,08,37,4.50
2018,01,16,08,38,4.50
2018,01,16,08,39,4.50
2018,01,16,08,40,4.50
2018,01,16,08,41,4.50
2018,01,16,08,42,4.50
2018,01,16,08,43,4.60
2018,01,16,08,44,4.60
2018,01,16,08,45,4.60
2018,01,16,08,46,4.60
2018,01,16,08,47,4.70
2018,01,16,08,48,4.70
2018,01,16,08,49,4.70
2018,01,16,08,50,4.70
2018,01,16,08,51,4.80
2018,01,16,08,52,4.80
2018,01,16,08,53,4.80
2018,01,16,08,54,4.80
2018,01,16,08,55,4.70
2018,01,16,08,56,4.70
2018,01,16,08,57,4.70
2018,01,16,08,58,4.70
2018,01,16,08,59,4.80
2018,01,16,09,00,4.80
2018,01,16,09,01,4.80
2018,01,16,09,02,4.80
2018,01,16,09,03,4.80
2018,01,16,09,04,4.80
2018,01,16,09,05,4.80
2018,01,16,09,06,4.80
2018,01,16,09,07,4.90
2018,01,16,09,08,5.00
2018,01,16,09,09,5.00
2018,01,16,09,10,5.00
2018,01,16,09,11,5.10
2018,01,16,09,12,5.10
2018,01,16,09,13,5.10
2018,01,16,09,14,5.10
2018,01,16,09,15,5.10
2018,01,16,09,16,5.10
2018,01,16,09,17,5.10
2018,01,16,09,18,5.20
2018,01,16,09,19,5.20
2018,01,16,09,20,5.20
2018,01,16,09,21,5.20
2018,01,16,09,22,5.30
2018,01,16,09,23,5.30
2018,01,16,09,24,5.30
2018,01,16,09,25,5.30
2018,01,16,09,26,5.40
2018,01,16,09,27,5.40
2018,01,16,09,28,5.40
2018,01,16,09,29,5.50
2018,01,16,09,30,5.50
2018,01,16,09,31,5.50
2018,01,16,09,32,5.60
2018,01,16,09,33,5.80
2018,01,16,09,34,5.90
2018,01,16,09,35,6.10
2018,01,16,09,36,6.30
2018,01,16,09,37,6.40
2018,01,16,09,38,6.50
2018,01,16,09,39,6.70
2018,01,16,09,40,6.90
2018,01,16,09,41,7.20
2018,01,16,09,42,7.50
2018,01,16,09,43,7.70
2018,01,16,09,44,7.90
2018,01,16,09,45,8.10
2018,01,16,09,46,8.30
2018,01,16,09,47,8.40
2018,01,16,09,48,8.50
2018,01,16,09,49,8.60
2018,01,16,09,50,8.70
2018,01,16,09,51,8.80
2018,01,16,09,52,8.80
2018,01,16,09,53,8.80
2018,01,16,09,54,8.80
2018,01,16,09,55,8.80
2018,01,16,09,56,8.80
2018,01,16,09,57,8.80
2018,01,16,09,58,8.80
2018,01,16,09,59,8.70
2018,01,16,10,00,8.70
2018,01,16,10,01,8.70
2018,01,16,10,02,8.70
2018,01,16,10,03,8.70
2018,01,16,10,04,8.70
2018,01,16,10,05,8.70
2018,01,16,10,06,8.70
2018,01,16,10,07,8.80
2018,01,16,10,08,8.80
2018,01,16,10,09,8.90
2018,01,16,10,10,8.90
2018,01,16,10,11,8.90
2018,01,16,10,12,8.90
2018,01,16,10,13,8.90
2018,01,16,10,14,8.90
2018,01,16,10,15,9.00
2018,01,16,10,16,9.00
2018,01,16,10,17,9.10
2018,01,16,10,18,9.20
2018,01,16,10,19,9.20
2018,01,16,10,20,9.20
2018,01,16,10,21,9.20
2018,01,16,10,22,9.30
2018,01,16,10,23,9.30
2018,01,16,10,24,9.30
2018,01,16,10,25,9.30
2018,01,16,10,26,9.30
2018,01,16,10,27,9.30
2018,01,16,10,28,9.30
2018,01,16,10,29,9.30
2018,01,16,10,30,9.30
2018,01,16,10,31,9.30
2018,01,16,10,32,9.30
2018,01,16,10,33,9.30
2018,01,16,10,34,9.40
2018,01,16,10,35,9.40
2018,01,16,10,36,9.40
2018,01,16,10,37,9.40
2018,01,16,10,38,9.50
2018,01,16,10,39,9.60
2018,01,16,10,40,9.70
2018,01,16,10,41,9.80
2018,01,16,10,42,9.80
2018,01,16,10,43,9.90
2018,01,16,10,44,10.00
2018,01,16,10,45,10.00
2018,01,16,10,46,10.00
2018,01,16,10,47,10.00
2018,01,16,10,48,9.90
2018,01,16,10,49,10.00
2018,01,16,10,50,10.00
2018,01,16,10,51,10.00
2018,01,16,10,52,10.10
2018,01,16,10,53,10.10
2018,01,16,10,54,10.10
2018,01,16,10,55,10.10
2018,01,16,10,56,10.10
2018,01,16,10,57,10.10
2018,01,16,10,58,10.10
2018,01,16,10,59,10.00
2018,01,16,11,00,10.00
2018,01,16,11,01,10.10
2018,01,16,11,02,10.10
2018,01,16,11,03,10.10
2018,01,16,11,04,10.10
2018,01,16,11,05,10.10
2018,01,16,11,06,10.10
2018,01,16,11,07,10.20
2018,01,16,11,08,10.20
2018,01,16,11,09,10.20
2018,01,16,11,10,10.20
2018,01,16,11,11,10.30
2018,01,16,11,12,10.30
2018,01,16,11,13,10.30
2018,01,16,11,14,10.30
2018,01,16,11,15,10.40
2018,01,16,11,16,10.40
2018,01,16,11,17,10.40
2018,01,16,11,18,10.50
2018,01,16,11,19,10.50
2018,01,16,11,20,10.60
2018,01,16,11,21,10.60
2018,01,16,11,22,10.60
2018,01,16,11,23,10.60
2018,01,16,11,24,10.60
2018,01,16,11,25,10.60
2018,01,16,11,26,10.60
2018,01,16,11,27,10.60
2018,01,16,11,28,10.60
2018,01,16,11,29,10.60
2018,01,16,11,30,10.60
2018,01,16,11,31,10.60
2018,01,16,11,32,10.60
2018,01,16,11,33,10.60
2018,01,16,11,34,10.60
2018,01,16,11,35,10.60
2018,01,16,11,36,10.60
2018,01,16,11,37,10.60
2018,01,16,11,38,10.50
2018,01,16,11,39,10.50
2018,01,16,11,40,10.50
2018,01,16,11,41,10.50
2018,01,16,11,42,10.60
2018,01,16,11,43,10.60
2018,01,16,11,44,10.60
2018,01,16,11,45,10.60
2018,01,16,11,46,10.70
2018,01,16,11,47,10.70
2018,01,16,11,48,10.70
2018,01,16,11,49,10.70
2018,01,16,11,50,10.70
2018,01,16,11,51,10.70
2018,01,16,11,52,10.80
2018,01,16,11,53,10.80
2018,01,16,11,54,10.80
2018,01,16,11,55,10.80
2018,01,16,11,56,10.90
2018,01,16,11,57,11.00
2018,01,16,11,58,11.10
2018,01,16,11,59,11.10
2018,01,16,12,00,11.10
2018,01,16,12,01,11.20
2018,01,16,12,02,11.20
2018,01,16,12,03,11.20
2018,01,16,12,04,11.20
2018,01,16,12,05,11.20
2018,01,16,12,06,11.20
2018,01,16,12,07,11.20
2018,01,16,12,08,11.20
2018,01,16,12,09,11.10
2018,01,16,12,10,11.00
2018,01,16,12,11,11.00
2018,01,16,12,12,11.00
2018,01,16,12,13,10.90
2018,01,16,12,14,10.90
2018,01,16,12,15,10.80
2018,01,16,12,16,10.80
2018,01,16,12,17,10.70
2018,01,16,12,18,10.70
2018,01,16,12,19,10.70
2018,01,16,12,20,10.60
2018,01,16,12,21,10.60
2018,01,16,12,22,10.50
2018,01,16,12,23,10.50
2018,01,16,12,24,10.40
2018,01,16,12,25,10.40
2018,01,16,12,26,10.30
2018,01,16,12,27,10.30
2018,01,16,12,28,10.20
2018,01,16,12,29,10.20
2018,01,16,12,30,10.10
2018,01,16,12,31,10.10
2018,01,16,12,32,10.10
2018,01,16,12,33,10.10
2018,01,16,12,34,10.00
2018,01,16,12,35,10.00
2018,01,16,12,36,10.00
2018,01,16,12,37,9.90
2018,01,16,12,38,9.90
2018,01,16,12,39,9.90
2018,01,16,12,40,9.90
2018,01,16,12,41,9.90
2018,01,16,12,42,9.90
2018,01,16,12,43,9.90
2018,01,16,12,44,9.90
2018,01,16,12,45,10.00
2018,01,16,12,46,10.00
2018,01,16,12,47,10.00
2018,01,16,12,48,10.10
2018,01,16,12,49,10.10
2018,01,16,12,50,10.10
2018,01,16,12,51,10.10
2018,01,16,12,52,10.10
2018,01,16,12,53,10.10
2018,01,16,12,54,10.10
2018,01,16,12,55,10.10
2018,01,16,12,56,10.10
2018,01,16,12,57,10.10
2018,01,16,12,58,10.10
2018,01,16,12,59,10.10
2018,01,16,13,00,10.10
2018,01,16,13,01,10.10
2018,01,16,13,02,10.10
2018,01,16,13,03,10.10
2018,01,16,13,04,10.10
2018,01,16,13,05,10.10
2018,01,16,13,06,10.20
2018,01,16,13,07,10.20
2018,01,16,13,08,10.30
2018,01,16,13,09,10.30
2018,01,16,13,10,10.40
2018,01,16,13,11,10.50
2018,01,16,13,12,10.60
2018,01,16,13,13,10.60
2018,01,16,13,14,10.70
2018,01,16,13,15,10.70
2018,01,16,13,16,10.70
2018,01,16,13,17,10.80
2018,01,16,13,18,10.80
2018,01,16,13,19,10.90
2018,01,16,13,20,10.90
2018,01,16,13,21,10.90
2018,01,16,13,22,11.00
2018,01,16,13,23,11.00
2018,01,16,13,24,11.10
2018,01,16,13,25,11.10
2018,01,16,13,26,11.10
2018,01,16,13,27,11.20
2018,01,16,13,28,11.20
2018,01,16,13,29,11.20
2018,01,16,13,30,11.20
2018,01,16,13,31,11.20
2018,01,16,13,32,11.20
2018,01,16,13,33,11.20
2018,01,16,13,34,11.20
2018,01,16,13,35,11.20
2018,01,16,13,36,11.20
2018,01,16,13,37,11.20
2018,01,16,13,38,11.20
2018,01,16,13,39,11.20
2018,01,16,13,40,11.20
2018,01,16,13,41,11.30
2018,01,16,13,42,11.30
2018,01,16,13,43,11.30
2018,01,16,13,44,11.30
2018,01,16,13,45,11.30
2018,01,16,13,46,11.30
2018,01,16,13,47,11.20
2018,01,16,13,48,11.20
2018,01,16,13,49,11.20
2018,01,16,13,50,11.20
2018,01,16,13,51,11.20
2018,01,16,13,52,11.20
2018,01,16,13,53,11.30
2018,01,16,13,54,11.30
2018,01,16,13,55,11.20
2018,01,16,13,56,11.20
2018,01,16,13,57,11.20
2018,01,16,13,58,11.20
2018,01,16,13,59,11.20
2018,01,16,14,00,11.20
2018,01,16,14,01,11.20
2018,01,16,14,02,11.20
2018,01,16,14,03,11.20
2018,01,16,14,04,11.20
2018,01,16,14,05,11.20
2018,01,16,14,06,11.20
2018,01,16,14,07,11.20
2018,01,16,14,08,11.10
2018,01,16,14,09,11.10
2018,01,16,14,10,11.00
2018,01,16,14,11,11.00
2018,01,16,14,12,10.90
2018,01,16,14,13,10.90
2018,01,16,14,14,10.90
2018,01,16,14,15,10.90
2018,01,16,14,16,10.80
2018,01,16,14,17,10.80
2018,01,16,14,18,10.70
2018,01,16,14,19,10.70
2018,01,16,14,20,10.70
2018,01,16,14,21,10.60
2018,01,16,14,22,10.60
2018,01,16,14,23,10.50
2018,01,16,14,24,10.50
2018,01,16,14,25,10.50
2018,01,16,14,26,10.50
2018,01,16,14,27,10.40
2018,01,16,14,28,10.40
2018,01,16,14,29,10.40
2018,01,16,14,30,10.40
2018,01,16,14,31,10.40
2018,01,16,14,32,10.40
2018,01,16,14,33,10.30
2018,01,16,14,34,10.30
2018,01,16,14,35,10.30
2018,01,16,14,36,10.30
2018,01,16,14,37,10.20
2018,01,16,14,38,10.20
2018,01,16,14,39,10.20
2018,01,16,14,40,10.20
2018,01,16,14,41,10.20
2018,01,16,14,42,10.20
2018,01,16,14,43,10.10
2018,01,16,14,44,10.10
2018,01,16,14,45,10.10
2018,01,16,14,46,10.10
2018,01,16,14,47,10.10
2018,01,16,14,48,10.00
2018,01,16,14,49,10.00
2018,01,16,14,50,9.90
2018,01,16,14,51,9.90
2018,01,16,14,52,9.80
2018,01,16,14,53,9.80
2018,01,16,14,54,9.80
2018,01,16,14,55,9.80
2018,01,16,14,56,9.70
2018,01,16,14,57,9.60
2018,01,16,14,58,9.60
2018,01,16,14,59,9.60
2018,01,16,15,00,9.60
2018,01,16,15,01,9.50
2018,01,16,15,02,9.50
2018,01,16,15,03,9.40
2018,01,16,15,04,9.30
2018,01,16,15,05,9.30
2018,01,16,15,06,9.20
2018,01,16,15,07,9.20
2018,01,16,15,08,9.10
2018,01,16,15,09,9.10
2018,01,16,15,10,9.10
2018,01,16,15,11,9.00
2018,01,16,15,12,9.00
2018,01,16,15,13,9.00
2018,01,16,15,14,8.90
2018,01,16,15,15,8.90
2018,01,16,15,16,8.90
2018,01,16,15,17,8.90
2018,01,16,15,18,8.90
2018,01,16,15,19,8.90
2018,01,16,15,20,8.90
2018,01,16,15,21,8.90
2018,01,16,15,22,8.80
2018,01,16,15,23,8.80
2018,01,16,15,24,8.80
2018,01,16,15,25,8.80
2018,01,16,15,26,8.80
2018,01,16,15,27,8.80
2018,01,16,15,28,8.80
2018,01,16,15,29,8.80
2018,01,16,15,30,8.80
2018,01,16,15,31,8.70
2018,01,16,15,32,8.70
2018,01,16,15,33,8.70
2018,01,16,15,34,8.70
2018,01,16,15,35,8.70
2018,01,16,15,36,8.70
2018,01,16,15,37,8.70
2018,01,16,15,38,8.70
2018,01,16,15,39,8.70
2018,01,16,15,40,8.70
2018,01,16,15,41,8.70
2018,01,16,15,42,8.70
2018,01,16,15,43,8.70
2018,01,16,15,44,8.70
2018,01,16,15,45,8.70
2018,01,16,15,46,8.70
2018,01,16,15,47,8.70
2018,01,16,15,48,8.70
2018,01,16,15,49,8.70
2018,01,16,15,50,8.60
2018,01,16,15,51,8.60
2018,01,16,15,52,8.60
2018,01,16,15,53,8.60
2018,01,16,15,54,8.60
2018,01,16,15,55,8.60
2018,01,16,15,56,8.50
2018,01,16,15,57,8.50
2018,01,16,15,58,8.50
2018,01,16,15,59,8.50
2018,01,16,16,00,8.50
2018,01,16,16,01,8.50
2018,01,16,16,02,8.50
2018,01,16,16,03,8.40
2018,01,16,16,04,8.40
2018,01,16,16,05,8.40
2018,01,16,16,06,8.40
2018,01,16,16,07,8.40
2018,01,16,16,08,8.40
2018,01,16,16,09,8.40
2018,01,16,16,10,8.30
2018,01,16,16,11,8.30
2018,01,16,16,12,8.30
2018,01,16,16,13,8.30
2018,01,16,16,14,8.30
2018,01,16,16,15,8.20
2018,01,16,16,16,8.20
2018,01,16,16,17,8.20
2018,01,16,16,18,8.20
2018,01,16,16,19,8.10
2018,01,16,16,20,8.10
2018,01,16,16,21,8.10
2018,01,16,16,22,8.10
2018,01,16,16,23,8.10
2018,01,16,16,24,8.00
2018,01,16,16,25,8.00
2018,01,16,16,26,8.00
2018,01,16,16,27,7.90
2018,01,16,16,28,7.90
2018,01,16,16,29,7.90
2018,01,16,16,30,7.90
2018,01,16,16,31,7.80
2018,01,16,16,32,7.80
2018,01,16,16,33,7.80
2018,01,16,16,34,7.80
2018,01,16,16,35,7.70
2018,01,16,16,36,7.70
2018,01,16,16,37,7.70
2018,01,16,16,38,7.70
2018,01,16,16,39,7.60
2018,01,16,16,40,7.60
2018,01,16,16,41,7.50
2018,01,16,16,42,7.50
2018,01,16,16,43,7.50
2018,01,16,16,44,7.50
2018,01,16,16,45,7.40
2018,01,16,16,46,7.40
2018,01,16,16,47,7.40
2018,01,16,16,48,7.40
2018,01,16,16,49,7.30
2018,01,16,16,50,7.30
2018,01,16,16,51,7.30
2018,01,16,16,52,7.30
2018,01,16,16,53,7.20
2018,01,16,16,54,7.20
2018,01,16,16,55,7.10
2018,01,16,16,56,7.10
2018,01,16,16,57,7.00
2018,01,16,16,58,7.00
2018,01,16,16,59,6.90
2018,01,16,17,00,6.90
2018,01,16,17,01,6.80
2018,01,16,17,02,6.80
2018,01,16,17,03,6.80
2018,01,16,17,04,6.70
2018,01,16,17,05,6.70
2018,01,16,17,06,6.70
2018,01,16,17,07,6.70
2018,01,16,17,08,6.60
2018,01,16,17,09,6.60
2018,01,16,17,10,6.50
2018,01,16,17,11,6.50
2018,01,16,17,12,6.40
2018,01,16,17,13,6.40
2018,01,16,17,14,6.40
2018,01,16,17,15,6.30
2018,01,16,17,16,6.30
2018,01,16,17,17,6.20
2018,01,16,17,18,6.20
2018,01,16,17,19,6.20
2018,01,16,17,20,6.10
2018,01,16,17,21,6.10
2018,01,16,17,22,6.10
2018,01,16,17,23,6.10
2018,01,16,17,24,6.00
2018,01,16,17,25,6.00
2018,01,16,17,26,6.00
2018,01,16,17,27,6.00
2018,01,16,17,28,6.00
2018,01,16,17,29,6.00
2018,01,16,17,30,6.00
2018,01,16,17,31,6.00
2018,01,16,17,32,6.00
2018,01,16,17,33,6.00
2018,01,16,17,34,5.90
2018,01,16,17,35,5.90
2018,01,16,17,36,5.90
2018,01,16,17,37,5.90
2018,01,16,17,38,5.90
2018,01,16,17,39,5.90
2018,01,16,17,40,5.90
2018,01,16,17,41,5.90
2018,01,16,17,42,5.90
2018,01,16,17,43,5.90
2018,01,16,17,44,5.80
2018,01,16,17,45,5.80
2018,01,16,17,46,5.70
2018,01,16,17,47,5.70
2018,01,16,17,48,5.70
2018,01,16,17,49,5.60
2018,01,16,17,50,5.60
2018,01,16,17,51,5.60
2018,01,16,17,52,5.50
2018,01,16,17,53,5.50
2018,01,16,17,54,5.50
2018,01,16,17,55,5.40